Weather History for KCUB - March, 2014

Change the Weather History Date:

Friday, March 7, 2014

  Actual Average Record
Temperature  
Mean Temperature 42 °F 54 °F  
Max Temperature 46 °F 66 °F 81 °F (2009)
Min Temperature 38 °F 42 °F 30 °F (2001)
Degree Days  
Heating Degree Days 23 11  
Month to date heating degree days 142 84  
Since 1 July heating degree days 2134 2013  
Cooling Degree Days 0 0  
Month to date cooling degree days 0 0  
Year to date cooling degree days 6 3  
Moisture  
Dew Point 39 °F    
Average Humidity 91    
Maximum Humidity 96    
Minimum Humidity 82    
Precipitation  
Precipitation 0.55 in 0.14 in 0.55 in (2014)
Month to date precipitation 1.81 0.91  
Year to date precipitation 8.19 8.19  
Sea Level Pressure  
Sea Level Pressure 29.92 in    
Wind  
Wind Speed 5 mph (North)    
Max Wind Speed 12 mph    
Max Gust Speed 18 mph    
Visibility 5 miles    
Events Rain    
T = Trace of Precipitation, MM = Missing Value Source: NWS Daily Summary

Daily Weather History Graph

Daily Weather History Graph

Search for Another Location

Airport or City:

Trip Planner

Search our weather history database for the weather conditions in past years. The results will help you decide how hot, cold, wet, or windy it might be!

Date:

Astronomy

Mar. 07, 2014 Rise Set
Actual Time 6:45 AM EST 6:25 PM EST
Civil Twilight 6:20 AM EST 6:50 PM EST
Nautical Twilight 5:51 AM EST 7:19 PM EST
Astronomical Twilight 5:22 AM EST 7:48 PM EST
Moon 10:53 AM EST (3/7) 12:12 AM EST (3/7)
Length of Visible Light 12h 30m
Length of Day
11h 40m
Waxing Crescent, 42% of the Moon is Illuminated
Mar 7
Waxing Crescent
Mar 8
First Quarter
Mar 16
Full
Mar 23
Last Quarter
Mar 30
New

Hourly Weather History & Observations

Time (EST) Temp. Windchill Dew Point Humidity Pressure Visibility Wind Dir Wind Speed Gust Speed Precip Events Conditions
12:42 AM 37.9 °F 35.5 °F 36.0 °F 93% 29.93 in 3.0 mi Variable 3.5 mph - 0.06 in Rain Rain
12:44 AM 37.9 °F - 36.0 °F 93% 29.93 in 3.0 mi Calm Calm - 0.06 in Rain Light Rain
12:53 AM 37.9 °F 33.5 °F 36.0 °F 93% 29.92 in 5.0 mi North 5.8 mph - 0.07 in Rain Light Rain
1:09 AM 37.9 °F 35.5 °F 36.0 °F 93% 29.91 in 6.0 mi Variable 3.5 mph - 0.00 in Rain Light Rain
1:34 AM 37.9 °F 33.5 °F 36.0 °F 93% 29.92 in 2.5 mi Variable 5.8 mph - 0.04 in Rain Heavy Rain
1:46 AM 37.9 °F 34.4 °F 37.0 °F 97% 29.92 in 3.0 mi Variable 4.6 mph - 0.08 in Rain Rain
1:53 AM 39.0 °F - 37.0 °F 93% 29.93 in 6.0 mi Calm Calm - 0.08 in Rain Light Rain
2:45 AM 39.0 °F 34.8 °F 36.0 °F 89% 29.91 in 5.0 mi Variable 5.8 mph - 0.05 in Rain Light Rain
2:53 AM 39.0 °F 34.0 °F 36.0 °F 89% 29.91 in 6.0 mi Variable 6.9 mph - 0.05 in Rain Light Rain
3:01 AM 37.9 °F - 36.0 °F 93% 29.91 in 5.0 mi North - - 0.00 in Rain Light Rain
3:36 AM 37.9 °F 33.5 °F 36.0 °F 93% 29.89 in 8.0 mi Variable 5.8 mph - 0.01 in   Overcast
3:53 AM 37.9 °F 32.1 °F 36.0 °F 93% 29.88 in 10.0 mi North 8.1 mph - 0.01 in   Overcast
4:53 AM 37.9 °F 33.5 °F 36.0 °F 93% 29.88 in 4.0 mi Variable 5.8 mph - 0.01 in Rain Light Rain
5:04 AM 37.9 °F 33.5 °F 36.0 °F 93% 29.88 in 2.5 mi Variable 5.8 mph - 0.01 in Rain Light Rain
5:16 AM 39.0 °F 34.8 °F 37.0 °F 93% 29.88 in 3.0 mi Variable 5.8 mph - 0.02 in Rain Light Rain
5:53 AM 39.0 °F 35.7 °F 37.0 °F 93% 29.88 in 3.0 mi Variable 4.6 mph - 0.03 in Rain Light Rain
6:15 AM 39.0 °F 34.8 °F 37.9 °F 96% 29.88 in 3.0 mi NNE 5.8 mph - 0.01 in Rain Light Rain
6:21 AM 39.0 °F 34.8 °F 37.9 °F 96% 29.88 in 3.0 mi NNE 5.8 mph - 0.01 in Rain Light Rain
6:26 AM 39.9 °F 36.7 °F 37.9 °F 93% 29.88 in 3.0 mi North 4.6 mph - 0.02 in Rain Light Rain
6:36 AM 39.9 °F 35.8 °F 37.9 °F 93% 29.88 in 3.0 mi Variable 5.8 mph - 0.02 in Rain Light Rain
6:48 AM 39.2 °F 35.9 °F 37.4 °F 93% 29.88 in 4.0 mi Variable 4.6 mph - 0.02 in Rain Light Rain
6:53 AM 39.9 °F 35.8 °F 37.9 °F 93% 29.88 in 4.0 mi NNE 5.8 mph - 0.02 in Rain Light Rain
7:14 AM 41.0 °F 38.0 °F 39.0 °F 93% 29.89 in 2.0 mi Variable 4.6 mph - 0.01 in Rain Light Rain
7:34 AM 41.0 °F 38.0 °F 39.0 °F 93% 29.90 in 1.8 mi Variable 4.6 mph - 0.02 in Rain Light Rain
7:53 AM 41.0 °F 36.4 °F 39.0 °F 93% 29.90 in 2.0 mi Variable 6.9 mph - 0.03 in Rain Light Rain
8:10 AM 42.1 °F 38.4 °F 39.9 °F 92% 29.90 in 3.0 mi Variable 5.8 mph - 0.00 in Rain Light Rain
8:29 AM 42.1 °F 39.2 °F 39.9 °F 92% 29.91 in 3.0 mi Variable 4.6 mph - 0.01 in   Overcast
8:37 AM 42.1 °F 37.1 °F 39.0 °F 89% 29.91 in 2.5 mi NNE 8.1 mph - 0.01 in Rain Light Rain
8:53 AM 42.1 °F 38.4 °F 39.9 °F 92% 29.92 in 2.0 mi Variable 5.8 mph - 0.02 in Rain Light Rain
9:00 AM 42.1 °F 38.4 °F 39.9 °F 92% 29.91 in 2.0 mi Variable 5.8 mph - 0.00 in Rain Light Rain
9:19 AM 42.1 °F 37.7 °F 39.9 °F 92% 29.92 in 3.0 mi Variable 6.9 mph - 0.01 in Rain Light Rain
9:37 AM 43.0 °F 38.2 °F 39.9 °F 89% 29.92 in 2.5 mi NNE 8.1 mph - 0.01 in Rain Light Rain
9:44 AM 43.0 °F 39.5 °F 39.9 °F 89% 29.92 in 2.0 mi Variable 5.8 mph - 0.03 in Rain Rain
9:53 AM 43.0 °F 40.3 °F 39.9 °F 89% 29.92 in 2.0 mi Variable 4.6 mph - 0.04 in Rain Rain
10:12 AM 43.0 °F 41.3 °F 41.0 °F 93% 29.92 in 1.5 mi Variable 3.5 mph - 0.04 in Rain Rain
10:30 AM 43.0 °F 41.3 °F 41.0 °F 93% 29.92 in 2.0 mi North 3.5 mph - 0.08 in Rain Rain
10:41 AM 43.0 °F 39.5 °F 41.0 °F 93% 29.93 in 3.0 mi Variable 5.8 mph - 0.09 in Rain Light Rain
10:46 AM 43.0 °F 38.2 °F 39.9 °F 89% 29.93 in 3.0 mi North 8.1 mph - 0.10 in Rain Light Rain
10:53 AM 43.0 °F 39.5 °F 39.9 °F 89% 29.94 in 3.0 mi Variable 5.8 mph - 0.10 in Rain Light Rain
11:01 AM 43.0 °F 38.2 °F 39.9 °F 89% 29.93 in 3.0 mi North 8.1 mph 16.1 mph 0.01 in Rain Light Rain
11:15 AM 43.0 °F 39.5 °F 39.9 °F 89% 29.94 in 3.0 mi Variable 5.8 mph - 0.02 in Rain Light Rain
11:32 AM 43.0 °F 39.5 °F 41.0 °F 93% 29.94 in 2.5 mi Variable 5.8 mph - 0.03 in Rain Light Rain
11:53 AM 42.1 °F 39.2 °F 39.9 °F 92% 29.94 in 3.0 mi Variable 4.6 mph - 0.04 in Rain Light Rain
12:25 PM 43.0 °F 40.3 °F 39.9 °F 89% 29.93 in 2.5 mi Variable 4.6 mph - 0.01 in Rain Light Rain
12:41 PM 43.0 °F 39.5 °F 41.0 °F 93% 29.93 in 2.5 mi Variable 5.8 mph - 0.02 in Rain Light Rain
12:53 PM 43.0 °F 39.5 °F 41.0 °F 93% 29.92 in 2.5 mi NNW 5.8 mph - 0.03 in Rain Light Rain
1:04 PM 43.0 °F 37.2 °F 41.0 °F 93% 29.92 in 3.0 mi North 10.4 mph 17.3 mph 0.01 in Rain Light Rain
1:37 PM 43.0 °F 37.7 °F 39.9 °F 89% 29.91 in 10.0 mi NNE 9.2 mph - 0.02 in Rain Light Rain
1:53 PM 43.0 °F 38.8 °F 39.9 °F 89% 29.91 in 10.0 mi Variable 6.9 mph - 0.02 in Rain Light Rain
2:53 PM 44.1 °F 40.8 °F 39.9 °F 85% 29.91 in 10.0 mi Variable 5.8 mph - 0.00 in   Overcast
3:53 PM 44.1 °F 41.5 °F 39.9 °F 85% 29.93 in 10.0 mi Variable 4.6 mph - 0.01 in Rain Light Rain
4:23 PM 44.1 °F 42.5 °F 41.0 °F 89% 29.92 in 10.0 mi NNW 3.5 mph - 0.00 in   Overcast
4:53 PM 45.0 °F 40.6 °F 41.0 °F 86% 29.93 in 10.0 mi NNW 8.1 mph - 0.00 in   Overcast
5:53 PM 46.0 °F 41.9 °F 41.0 °F 83% 29.96 in 10.0 mi NW 8.1 mph - N/A   Overcast
6:17 PM 45.0 °F 41.8 °F 41.0 °F 86% 29.96 in 10.0 mi Variable 5.8 mph - N/A   Overcast
6:53 PM 45.0 °F - 39.9 °F 82% 29.96 in 10.0 mi Calm Calm - N/A   Mostly Cloudy
7:53 PM 44.1 °F - 39.9 °F 85% 29.99 in 10.0 mi Calm Calm - N/A   Clear
8:53 PM 44.1 °F 41.5 °F 41.0 °F 89% 30.01 in 10.0 mi NW 4.6 mph - N/A   Clear
9:53 PM 43.0 °F 41.3 °F 39.9 °F 89% 30.04 in 10.0 mi NW 3.5 mph - N/A   Clear
10:53 PM 41.0 °F - 37.9 °F 89% 30.03 in 10.0 mi Calm Calm - N/A   Clear
11:53 PM 39.0 °F - 37.0 °F 93% 30.05 in 10.0 mi Calm Calm - N/A   Clear